Little Rock AFB, AR

2:32 PM CDT on September 19, 2019 (GMT -0500)
Little Rock Air Force Base

Weather History for KLRF - August, 2019

Change the Weather History Date:

Saturday, August 24, 2019

  Actual Average Record
Temperature  
Mean Temperature 80 °F -  
Max Temperature 83 °F 90 °F 104 °F (1998)
Min Temperature 75 °F 67 °F 60 °F (1966)
Cooling Degree Days 14    
Growing Degree Days 30 (Base 50)    
Moisture  
Dew Point 75 °F    
Average Humidity 92    
Maximum Humidity 100    
Minimum Humidity 74    
Precipitation  
Precipitation 0.00 in - - ()
Sea Level Pressure  
Sea Level Pressure 30.00 in    
Wind  
Wind Speed 7 mph ()    
Max Wind Speed 13 mph    
Max Gust Speed -    
Visibility 10.0 miles    
Events      
Averages and records for this station are not official NWS values.
T = Trace of Precipitation, MM = Missing Value Source: Averaged Metar Reports

Daily Weather History Graph

Daily Weather History Graph

Search for Another Location

Airport or City:

Astronomy

Aug. 24, 2019 Rise Set
Actual Time 6:35 AM CDT 7:46 PM CDT
Civil Twilight 6:09 AM CDT 8:12 PM CDT
Nautical Twilight 5:37 AM CDT 8:43 PM CDT
Astronomical Twilight 5:05 AM CDT 9:15 PM CDT
Moon 12:33 AM CDT (8/24) 2:56 PM CDT (8/24)
Length of Visible Light 14h 03m
Length of Day
13h 10m
Last Quarter, 39% of the Moon is Illuminated
Aug 24
Last Quarter
Aug 30
New
Sep 5
First Quarter
Sep 13
Full
Sep 21
Last Quarter

Hourly Weather History & Observations

Time (CDT) Temp. Heat Index Dew Point Humidity Pressure Visibility Wind Dir Wind Speed Gust Speed Precip Events Conditions
12:56 AM 76.8 °F - 75.2 °F 95% 29.99 in 10.0 mi ENE 5.8 mph - N/A   Scattered Clouds
1:56 AM 76.3 °F - 75.6 °F 98% 29.99 in 10.0 mi NE 5.8 mph - N/A   Mostly Cloudy
2:46 AM 75.2 °F - 75.2 °F 100% 30.00 in 10.0 mi NE 5.8 mph - N/A   Mostly Cloudy
2:56 AM 75.9 °F - 75.6 °F 99% 30.00 in 10.0 mi ENE 5.8 mph - N/A   Mostly Cloudy
3:56 AM 75.7 °F - 75.4 °F 99% 29.99 in 10.0 mi ENE 5.8 mph - N/A   Mostly Cloudy
4:51 AM 75.2 °F - 75.2 °F 100% 29.99 in 10.0 mi ENE 4.6 mph - N/A   Mostly Cloudy
4:56 AM 75.2 °F - 75.2 °F 100% 29.99 in 10.0 mi ENE 5.8 mph - N/A   Overcast
5:06 AM 75.2 °F - 75.2 °F 100% 29.99 in 10.0 mi ENE 4.6 mph - N/A   Overcast
5:51 AM 75.2 °F - 75.2 °F 100% 30.00 in 10.0 mi East 5.8 mph - N/A   Overcast
5:56 AM 75.6 °F - 75.2 °F 99% 30.00 in 10.0 mi ENE 4.6 mph - N/A   Overcast
6:56 AM 75.6 °F - 75.6 °F 100% 30.01 in 10.0 mi ENE 6.9 mph - N/A   Overcast
7:56 AM 76.1 °F - 76.1 °F 100% 30.01 in 10.0 mi ENE 5.8 mph - N/A   Overcast
8:56 AM 75.9 °F - 75.6 °F 99% 30.02 in 10.0 mi NNE 6.9 mph - N/A   Overcast
9:21 AM 75.2 °F - 75.2 °F 100% 30.02 in 10.0 mi NE 6.9 mph - N/A   Overcast
9:56 AM 75.2 °F - 74.8 °F 99% 30.02 in 10.0 mi NE 10.4 mph - N/A   Overcast
10:56 AM 75.7 °F - 75.4 °F 99% 30.03 in 10.0 mi NE 8.1 mph - N/A   Overcast
11:16 AM 77.0 °F - 75.2 °F 94% 30.03 in 10.0 mi ENE 10.4 mph - N/A   Overcast
11:21 AM 77.0 °F - 75.2 °F 94% 30.03 in 10.0 mi ENE 8.1 mph - N/A   Overcast
11:56 AM 77.0 °F - 75.0 °F 94% 30.03 in 10.0 mi NE 9.2 mph - N/A   Overcast
12:31 PM 78.8 °F - 75.2 °F 89% 30.02 in 10.0 mi NE 10.4 mph - N/A   Overcast
12:46 PM 77.0 °F - 75.2 °F 94% 30.02 in 10.0 mi NNE 10.4 mph - N/A   Overcast
12:56 PM 77.2 °F - 74.3 °F 91% 30.01 in 10.0 mi NE 11.5 mph - N/A   Overcast
1:21 PM 78.8 °F - 73.4 °F 83% 30.00 in 10.0 mi NNE 9.2 mph - N/A   Overcast
1:46 PM 80.6 °F 86.2 °F 75.2 °F 84% 29.99 in 10.0 mi NNE 9.2 mph - N/A   Overcast
1:56 PM 81.1 °F 86.8 °F 74.3 °F 80% 29.99 in 10.0 mi NE 9.2 mph - N/A   Mostly Cloudy
2:11 PM 84.2 °F 92.3 °F 75.2 °F 74% 29.99 in 10.0 mi NE 5.8 mph - N/A   Mostly Cloudy
2:16 PM 84.2 °F 92.3 °F 75.2 °F 74% 29.99 in 10.0 mi NE 9.2 mph - N/A   Mostly Cloudy
2:51 PM 82.4 °F 89.5 °F 75.2 °F 79% 29.98 in 10.0 mi NE 8.1 mph - N/A   Mostly Cloudy
2:57 PM 82.2 °F 88.8 °F 74.7 °F 78% 29.97 in 10.0 mi NE 6.9 mph - N/A   Mostly Cloudy
3:56 PM 79.9 °F - 74.1 °F 82% 29.96 in 10.0 mi NE 6.9 mph - N/A   Mostly Cloudy
4:56 PM 79.3 °F - 73.6 °F 82% 29.95 in 10.0 mi NE 9.2 mph - N/A   Scattered Clouds
5:56 PM 79.3 °F - 73.6 °F 82% 29.96 in 10.0 mi ENE 12.7 mph - N/A   Partly Cloudy
6:36 PM 78.8 °F - 73.4 °F 83% 29.96 in 10.0 mi NE 10.4 mph - N/A   Mostly Cloudy
6:56 PM 77.9 °F - 73.0 °F 85% 29.96 in 10.0 mi NE 8.1 mph - N/A   Overcast
7:56 PM 76.3 °F - 73.0 °F 90% 29.98 in 10.0 mi ENE 9.2 mph - N/A   Overcast
8:56 PM 75.7 °F - 73.8 °F 94% 29.99 in 10.0 mi ENE 10.4 mph - N/A   Overcast
9:56 PM 75.6 °F - 73.9 °F 95% 29.99 in 10.0 mi NE 6.9 mph - N/A   Mostly Cloudy
10:21 PM 75.2 °F - 73.4 °F 94% 29.99 in 10.0 mi NE 6.9 mph - N/A   Overcast
10:56 PM 75.4 °F - 73.8 °F 95% 29.99 in 10.0 mi NE 8.1 mph - N/A   Overcast
11:26 PM 75.2 °F - 73.4 °F 94% 29.99 in 10.0 mi ENE 8.1 mph - N/A   Mostly Cloudy
11:56 PM 75.2 °F - 74.3 °F 97% 29.99 in 10.0 mi NE 6.9 mph - N/A   Overcast